Offutt Air Force Base, NE

12:55 PM CDT on September 28, 2016 (GMT -0500)
Offutt Air Force Base

Weather History for KOFF - January, 2014

Change the Weather History Date:

Wednesday, January 15, 2014

  Actual Average Record
Temperature  
Mean Temperature 22 °F -  
Max Temperature 35 °F 31 °F 62 °F (2006)
Min Temperature 10 °F 14 °F -12 °F (2009)
Degree Days  
Heating Degree Days 42    
Moisture  
Dew Point 13 °F    
Average Humidity 64    
Maximum Humidity 81    
Minimum Humidity 44    
Precipitation  
Precipitation 0.00 in - - ()
Sea Level Pressure  
Sea Level Pressure 30.09 in    
Wind  
Wind Speed 9 mph (SW)    
Max Wind Speed 16 mph    
Max Gust Speed 23 mph    
Visibility 10 miles    
Events      
Averages and records for this station are not official NWS values.
T = Trace of Precipitation, MM = Missing Value Source: NWS Daily Summary

Daily Weather History Graph

Daily Weather History Graph

Search for Another Location

Airport or City:

Trip Planner

Search our weather history database for the weather conditions in past years. The results will help you decide how hot, cold, wet, or windy it might be!

Date:

Astronomy

Jan. 15, 2014 Rise Set
Actual Time 7:46 AM CST 5:19 PM CST
Civil Twilight 7:16 AM CST 5:50 PM CST
Nautical Twilight 6:42 AM CST 6:24 PM CST
Astronomical Twilight 6:09 AM CST 6:57 PM CST
Moon 5:19 PM CST (1/15) 7:02 AM CST (1/15)
Length of Visible Light 10h 33m
Length of Day
9h 33m
Full, 100% of the Moon is Illuminated
Jan 15
Full
Jan 15
Full
Jan 23
Last Quarter
Jan 30
New
Feb 6
First Quarter

Hourly Weather History & Observations

Time (CST) Temp. Windchill Dew Point Humidity Pressure Visibility Wind Dir Wind Speed Gust Speed Precip Events Conditions
12:58 AM 16.3 °F 2.7 °F 8.1 °F 70% 30.29 in 10.0 mi NW 12.7 mph - N/A   Clear
1:58 AM 16.0 °F 3.6 °F 7.9 °F 70% 30.29 in 10.0 mi NW 10.4 mph 23.0 mph N/A   Clear
2:58 AM 15.1 °F 3.3 °F 7.0 °F 70% 30.30 in 10.0 mi NW 9.2 mph - N/A   Clear
3:58 AM 13.5 °F 2.2 °F 6.8 °F 75% 30.30 in 10.0 mi NW 8.1 mph - N/A   Clear
4:58 AM 11.8 °F 5.7 °F 5.5 °F 76% 30.29 in 10.0 mi NW 3.5 mph - N/A   Clear
5:58 AM 10.2 °F 0.6 °F 5.5 °F 81% 30.29 in 10.0 mi WNW 5.8 mph - N/A   Clear
6:58 AM 12.7 °F 6.7 °F 6.8 °F 77% 30.27 in 10.0 mi WNW 3.5 mph - N/A   Clear
7:58 AM 10.4 °F - 5.4 °F 80% 30.28 in 10.0 mi West 2.3 mph - N/A   Partly Cloudy
8:58 AM 13.8 °F 4.9 °F 7.7 °F 77% 30.29 in 10.0 mi SW 5.8 mph - N/A   Scattered Clouds
9:58 AM 17.8 °F - 7.2 °F 63% 30.27 in 10.0 mi SSW 2.3 mph - N/A   Scattered Clouds
10:58 AM 20.8 °F 14.4 °F 6.6 °F 54% 30.22 in 10.0 mi South 4.6 mph - N/A   Clear
11:58 AM 23.5 °F 14.5 °F 6.1 °F 47% 30.18 in 10.0 mi SSW 8.1 mph - N/A   Scattered Clouds
12:58 PM 27.7 °F 18.8 °F 8.1 °F 44% 30.11 in 10.0 mi South 9.2 mph - N/A   Mostly Cloudy
1:58 PM 30.4 °F 20.5 °F 11.1 °F 45% 30.05 in 10.0 mi South 12.7 mph - N/A   Mostly Cloudy
2:58 PM 32.9 °F 23.2 °F 13.5 °F 45% 29.99 in 10.0 mi South 13.8 mph - N/A   Scattered Clouds
3:58 PM 33.1 °F 22.6 °F 15.4 °F 48% 29.95 in 10.0 mi South 16.1 mph - N/A   Overcast
4:58 PM 32.0 °F 22.5 °F 15.8 °F 51% 29.95 in 10.0 mi South 12.7 mph - N/A   Overcast
5:58 PM 32.4 °F 23.5 °F 18.7 °F 57% 29.90 in 10.0 mi SSE 11.5 mph - N/A   Overcast
6:58 PM 33.6 °F 25.0 °F 20.5 °F 59% 29.88 in 10.0 mi South 11.5 mph - N/A   Mostly Cloudy
7:58 PM 34.0 °F 26.6 °F 21.6 °F 60% 29.86 in 10.0 mi South 9.2 mph - N/A   Mostly Cloudy
8:58 PM 35.1 °F 27.9 °F 23.0 °F 61% 29.82 in 10.0 mi SSW 9.2 mph - N/A   Mostly Cloudy
9:58 PM 34.9 °F 29.9 °F 24.1 °F 65% 29.81 in 10.0 mi South 5.8 mph - N/A   Mostly Cloudy
10:58 PM 31.3 °F 26.6 °F 23.5 °F 73% 29.81 in 10.0 mi West 4.6 mph - N/A   Partly Cloudy
11:58 PM 32.4 °F 25.3 °F 25.5 °F 76% 29.82 in 10.0 mi WNW 8.1 mph - N/A   Mostly Cloudy